Regional Weather Roundup
Issued by NWS State College, PA

Home | Current Version | Previous Version | Graphics & Text | Print | Product List | Glossary On
Versions: 1 2 3 4 5 6 7 8 9 10 11 12 13 14 15 16 17 18 19 20 21 22 23 24 25 26 27 28 29 30 31 32 33 34 35 36 37 38 39 40 41 42 43 44 45 46 47 48 49 50
000
ASUS41 KCTP 230103
RWRCTP

REGIONAL WEATHER ROUNDUP
NATIONAL WEATHER SERVICE STATE COLLEGE PA
900 PM EDT SUN APR 22 2018

Note: "fair" indicates few or no clouds below 12,000 feet with no
significant weather and/or obstructions to visibility.

* = STATION THAT DOES NOT REPORT PRECIPITATION /E.G. RAIN...SNOW...ETC/
    THUNDER OR FOG.

PAZ002>004-007>009-013>016-020>023-029>032-230200-
WESTERN PENNSYLVANIA

CITY           SKY/WX    TMP DP  RH WIND       PRES   REMARKS
ERIE           FAIR      52  23  32 NE13      30.33R
MEADVILLE      FAIR      53  24  32 NE10      30.30R
FRANKLIN*      FAIR      58  16  19 E5        30.30R
NEW CASTLE     FAIR      58  21  24 E5        30.28R
BEAVER COUNTY  NOT AVBL
BUTLER*        FAIR      58  26  29 NE6       30.28R
PITTSBURGH INT FAIR      62  27  26 NE7       30.25R
PITTSBURGH     FAIR      59  30  33 E7        30.25R
INDIANA*       PTCLDY    55  30  38 E5        30.34R
LATROBE        CLEAR     59  28  31 E12       30.20F
WASHINGTON CO* FAIR      57  33  40 E3        30.28R
$$

PAZ004>006-010>012-017>019-024>028-033>037-041-042-045-046-049>053-230200-
CENTRAL PENNSYLVANIA

CITY           SKY/WX    TMP DP  RH WIND       PRES   REMARKS
BRADFORD       FAIR      52  13  21 NE3       30.34R
DUBOIS         FAIR      55  18  23 E5        30.31R
CLEARFIELD     FAIR      54  22  28 CALM      30.33R
JOHNSTOWN      FAIR      52  29  41 E6        30.31R
ALTOONA        FAIR      56  30  37 SE7       30.33R
STATE COLLEGE  CLEAR     57  21  24 CALM      30.34R
WILLIAMSPORT   FAIR      51  27  39 CALM      30.34R
SELINSGROVE    FAIR      47  33  58 NW3       30.35R
FT INDIANTOWN  NOT AVBL
CAPITAL CITY   FAIR      56  34  43 CALM      30.35R
HARRISBURG     FAIR      52  36  54 CALM      30.35R
YORK           FAIR      49  36  61 CALM      30.36R
$$

PAZ038>040-043-044-047-048-054-055-060>062-067>071-230200-
EASTERN PENNSYLVANIA

CITY           SKY/WX    TMP DP  RH WIND       PRES   REMARKS
SCRANTON       FAIR      53  20  27 E3        30.36R
MOUNT POCONO   FAIR      49  15  25 NW5       30.35R
ALLENTOWN      FAIR      60  21  22 W3        30.35R
QUAKERTOWN*    CLEAR     50  30  46 CALM      30.35R
READING        FAIR      58  28  32 SW3       30.34R
LANCASTER      FAIR      52  33  48 CALM      30.36R
COATESVILLE    FAIR      57  25  28 CALM      30.37R
POTTSTOWN      FAIR      55  27  34 CALM      30.36R
BLUE BELL      FAIR      52  34  50 SW3       30.37R
DOYLESTOWN     FAIR      55  22  27 CALM      30.34R
WILLOW GROVE   NOT AVBL
NORTH PHILA    FAIR      59  29  31 SE7       30.37R
PHILADELPHIA   FAIR      57  33  40 S9        30.37R
$$



USA.gov is the U.S. government's official web portal to all federal, state and local government web resources and services.